Startpagina
METAR-TAF:

METAR-TAF

Vliegvelden :

Vlieland Heliport

Vlieland, Nederland

breedte: 53-15N, lengte: 004-55E, hoogte: 11 m

Actueel weer

Dit bericht is 23 minuten geleden gemaakt, om 01:25 UTC
Wind 14 kt uit het oosten
Temperatuur 2°C
Vochtigheid 87%
Druk 1033 hPa
Zicht: 7000 m
nevel

METAR: EHVL 180125Z AUTO 10014KT 7000 BR NCD 02/00 Q1033 WHT

Tijdstip: 02:48 (01:48 UTC)


TAF: ontbreekt

Waarnemingen en weersverwachtingen van meer dan 4000 vliegvelden (METAR en TAF).

De beschikbare stations zijn de gele en rode punten op de kaart.

Ga met uw muis naar het station om de naam te zien.

Klik dan om waarnemingen en weersverwachtingen te zien.

kaart wijzigen: klik op de groene knoppen met een zwart kruis om in te zoomen, op de groene knop met een streepje om uit te zoomen of op de groene pijlen voor aangrenzende kaarten.


METAR-TAF: